Montgomery, NY

7:31 AM EDT on October 16, 2019 (GMT -0400)
Orange County

Weather History for KMGJ - September, 2019

Change the Weather History Date:

Thursday, September 19, 2019

  Actual Average (WUND) Record (WUND)
Temperature  
Mean Temperature 52 °F -  
Max Temperature 70 °F - - (-1)
Min Temperature 36 °F - - (-1)
Degree Days  
Heating Degree Days 12    
Growing Degree Days 2 (Base 50)    
Moisture  
Dew Point 40 °F    
Average Humidity 85    
Maximum Humidity 100    
Minimum Humidity 29    
Precipitation  
Precipitation 0.00 in - - ()
Sea Level Pressure  
Sea Level Pressure 30.33 in    
Wind  
Wind Speed 0 mph (SW)    
Max Wind Speed 5 mph    
Max Gust Speed -    
Visibility 6 miles    
Events Rain    
Averages and records for this station are not official NWS values.
T = Trace of Precipitation, MM = Missing Value Source: NWS Daily Summary

Daily Weather History Graph

Daily Weather History Graph

Search for Another Location

Airport or City:

Astronomy

Sep. 19, 2019 Rise Set
Actual Time 6:41 AM EDT 6:59 PM EDT
Civil Twilight 6:13 AM EDT 7:27 PM EDT
Nautical Twilight 5:40 AM EDT 8:00 PM EDT
Astronomical Twilight 5:07 AM EDT 8:33 PM EDT
Moon 10:03 PM EDT (9/19) 11:45 AM EDT (9/19)
Length of Visible Light 13h 14m
Length of Day
12h 18m
Waning Gibbous, 74% of the Moon is Illuminated
Sep 19
Waning Gibbous
Sep 21
Last Quarter
Sep 28
New
Oct 5
First Quarter
Oct 13
Full

Hourly Weather History & Observations

Time (EDT) Temp. Windchill Dew Point Humidity Pressure Visibility Wind Dir Wind Speed Gust Speed Precip Events Conditions
12:40 AM 45.0 °F - 44.1 °F 97% 30.33 in 2.5 mi Calm Calm - N/A   Clear
12:54 AM 43.0 °F - 42.1 °F 97% 30.34 in 4.0 mi Calm Calm - N/A   Clear
1:54 AM 41.0 °F - 41.0 °F 100% 30.35 in 10.0 mi Calm Calm - 0.00 in Rain Light Rain
2:54 AM 42.1 °F - 41.0 °F 96% 30.34 in 9.0 mi Calm Calm - 0.00 in   Scattered Clouds
2:58 AM 42.1 °F - 41.0 °F 96% 30.34 in 1.8 mi Calm Calm - N/A   Scattered Clouds
3:01 AM 42.1 °F - 41.0 °F 96% 30.34 in 1.0 mi Calm Calm - N/A   Mist
3:08 AM 41.0 °F - 41.0 °F 100% 30.34 in 0.8 mi Calm Calm - N/A   Mist
3:39 AM 41.0 °F - 39.9 °F 96% 30.33 in 1.8 mi Calm Calm - N/A   Scattered Clouds
3:43 AM 41.0 °F - 39.9 °F 96% 30.33 in 0.8 mi Calm Calm - N/A   Mist
3:54 AM 39.9 °F - 39.9 °F 100% 30.33 in 0.8 mi Calm Calm - N/A   Mist
4:14 AM 39.0 °F - 37.9 °F 96% 30.33 in 1.5 mi Calm Calm - N/A   Overcast
4:22 AM 37.9 °F - 37.9 °F 100% 30.34 in 0.8 mi Calm Calm - N/A   Mist
4:31 AM 39.0 °F - 39.0 °F 100% 30.34 in 1.2 mi Calm Calm - N/A   Overcast
4:38 AM 39.0 °F - 37.9 °F 96% 30.33 in 0.8 mi Calm Calm - N/A   Mist
4:52 AM 39.2 °F - 37.4 °F 93% 30.33 in 1.2 mi Calm Calm - N/A   Overcast
4:54 AM 39.0 °F - 37.9 °F 96% 30.34 in 2.0 mi Calm Calm - N/A   Overcast
5:11 AM 39.0 °F - 37.9 °F 96% 30.34 in 1.2 mi Calm Calm - N/A   Overcast
5:16 AM 37.9 °F - 37.9 °F 100% 30.34 in 3.0 mi Calm Calm - N/A   Mostly Cloudy
5:31 AM 37.9 °F - 37.0 °F 97% 30.34 in 10.0 mi Calm Calm - N/A   Scattered Clouds
5:54 AM 37.9 °F - 37.9 °F 100% 30.34 in 10.0 mi Calm Calm - N/A   Clear
6:05 AM 37.9 °F - 37.0 °F 97% 30.34 in 10.0 mi Calm Calm - N/A   Partly Cloudy
6:22 AM 37.0 °F - 36.0 °F 96% 30.34 in 1.2 mi Calm Calm - N/A   Partly Cloudy
6:26 AM 37.0 °F - 37.0 °F 100% 30.34 in 0.8 mi Calm Calm - N/A   Mist
6:32 AM 37.9 °F - 37.0 °F 97% 30.34 in 1.2 mi Calm Calm - N/A   Partly Cloudy
6:37 AM 37.0 °F - 37.0 °F 100% 30.35 in 3.0 mi Calm Calm - N/A   Clear
6:54 AM 36.0 °F - 36.0 °F 100% 30.36 in 10.0 mi Calm Calm - N/A   Partly Cloudy
7:54 AM 39.9 °F 37.8 °F 39.9 °F 100% 30.37 in 9.0 mi SSW 3.5 mph - N/A   Partly Cloudy
8:54 AM 46.9 °F - 46.0 °F 97% 30.38 in 10.0 mi Calm Calm - N/A   Clear
9:54 AM 54.0 °F - 48.0 °F 80% 30.39 in 10.0 mi Calm Calm - N/A   Clear
10:54 AM 60.1 °F - 43.0 °F 53% 30.38 in 10.0 mi NW 3.5 mph - N/A   Clear
11:54 AM 62.1 °F - 39.0 °F 43% 30.36 in 10.0 mi Variable 4.6 mph - N/A   Clear
12:54 PM 63.0 °F - 41.0 °F 45% 30.34 in 10.0 mi South 3.5 mph - N/A   Clear
1:54 PM 64.9 °F - 34.0 °F 32% 30.32 in 10.0 mi Calm Calm - N/A   Clear
2:54 PM 66.9 °F - 37.9 °F 34% 30.31 in 10.0 mi SE 3.5 mph - N/A   Clear
3:54 PM 69.1 °F - 35.1 °F 29% 30.30 in 10.0 mi Calm Calm - N/A   Clear
4:54 PM 68.0 °F - 36.0 °F 31% 30.29 in 10.0 mi SW 4.6 mph - N/A   Clear
5:54 PM 66.0 °F - 43.0 °F 43% 30.29 in 10.0 mi WSW 3.5 mph - N/A   Clear
6:54 PM 57.0 °F - 46.9 °F 69% 30.29 in 10.0 mi SW 3.5 mph - N/A   Clear
7:54 PM 50.0 °F - 45.0 °F 83% 30.27 in 10.0 mi Calm Calm - N/A   Clear
8:54 PM 46.9 °F - 45.0 °F 93% 30.28 in 10.0 mi Calm Calm - N/A   Clear
9:54 PM 45.0 °F - 43.0 °F 93% 30.27 in 10.0 mi Calm Calm - N/A   Clear
10:54 PM 44.1 °F - 42.1 °F 93% 30.28 in 10.0 mi Calm Calm - N/A   Clear
11:54 PM 42.1 °F - 41.0 °F 96% 30.27 in 10.0 mi Calm Calm - N/A   Clear